Regional Weather Roundup
Issued by NWS

Home | Current Version | Previous Version | Text Only | Print | Product List | Glossary On
Versions: 1 2 3 4 5 6 7 8 9 10 11 12 13 14 15 16 17 18 19 20 21 22 23 24 25 26 27 28 29 30 31 32 33 34 35 36 37 38 39 40 41 42 43 44 45 46 47 48 49 50
000
ASUS43 KFSD 040810
RWRSD

WEATHER ROUNDUP FOR SOUTH DAKOTA
NATIONAL WEATHER SERVICE SIOUX FALLS SD
300 AM CDT SAT JUL 04 2015

NOTE: "FAIR" INDICATES FEW OR NO CLOUDS BELOW 12,000 FEET WITH NO
SIGNIFICANT WEATHER AND/OR OBSTRUCTIONS TO VISIBILITY.


SDZ001>005-009-010-012>017-040900-
NORTHWEST AND NORTH CENTRAL SOUTH DAKOTA

CITY           SKY/WX    TMP DP  RH WIND       PRES   REMARKS
BUFFALO          N/A     65  59  81 S12       29.82F
FAITH            N/A     64  59  83 SE9       29.91F
MOBRIDGE       CLEAR     68  67  96 SE6       29.88F FOG
$$

SDZ012>016-024>037-041>051-057-063-072>074-040900-
SOUTHWEST AND SOUTH CENTRAL SOUTH DAKOTA

CITY           SKY/WX    TMP DP  RH WIND       PRES   REMARKS
RAPID CTY ARPT MOCLDY    63  60  90 SE5       29.93F
PIERRE         CLEAR     65  62  90 SE7       29.90F
CUSTER         MOCLDY    55  52  89 W3        30.08F
ELLSWORTH AFB  MOCLDY    68  59  74 S6        29.92F
PHILIP         CLEAR     64  61  90 E3        29.90F FOG
PINE RIDGE     MOCLDY    70  57  63 S16       29.95F
SPEARFISH      MOCLDY    68  54  60 CALM      29.94F
WINNER         FAIR      70  60  70 S12       29.93F
$$

SDZ004>011-016>023-039-040-040900-
NORTHEAST SOUTH DAKOTA

CITY           SKY/WX    TMP DP  RH WIND       PRES   REMARKS
ABERDEEN       CLOUDY    63  61  93 S6        29.92S FOG
WATERTOWN      CLEAR     65  62  90 S5        29.95S FOG
BROOKINGS      CLEAR     64  61  88 S5        29.98F
SISSETON         N/A     62  60  93 S3        29.91S
$$

SDZ017-020-022-023-036>040-048>070-040900-
SOUTHEAST SOUTH DAKOTA

CITY           SKY/WX    TMP DP  RH WIND       PRES   REMARKS
SIOUX FALLS    CLEAR     67  60  78 CALM      29.97S
HURON          CLEAR     66  63  90 S7        29.93S
CHAMBERLAIN    CLEAR     64  63  95 SE7       29.93F
MITCHELL       CLEAR     68  64  87 S6        29.95S
YANKTON        CLEAR     63  61  94 CALM      29.96R
$$

ABBREVIATIONS USED IN REMARKS
   TC - TEMPERATURE IN CELSIUS
  WCI - WIND CHILL INDEX
   HX - HEAT INDEX
  VSB - VISIBILITY




USA.gov is the U.S. government's official web portal to all federal, state and local government web resources and services.